Location: Newark
(35.6799°N, 139.7636°E)
Time: 03:52:15
(UTC+00:00)

Explorer 7 - Visible Passes

Search period start: 22 January 2021 00:00
Search period end: 01 February 2021 00:00
Orbit: 484 x 678 km, 50.3° (Epoch: 21 January)

Date Brightness Start Highest point End Pass type
(mag) Time Alt. Az. Time Alt. Az. Time Alt. Az.
22 Jan 8.0 20:28:33 22° NNW 20:28:50 22° NNW 20:32:03 10° NNE visible
23 Jan 8.5 20:33:13 16° NNW 20:33:41 17° NNW 20:36:19 10° NNE visible
24 Jan 8.8 20:37:48 13° NNW 20:38:34 13° NNW 20:40:33 10° NNE visible
25 Jan 9.0 20:42:21 10° NNW 20:43:31 11° N 20:44:42 10° N visible
28 Jan 9.2 20:57:36 10° N 20:58:28 11° N 20:59:21 10° NNE visible
29 Jan 9.1 21:01:44 10° N 21:03:25 12° NNE 21:05:08 10° NE visible
30 Jan 9.1 21:05:55 10° NNW 21:08:18 15° NNE 21:10:46 10° ENE visible
31 Jan 8.8 21:10:10 10° NNW 21:13:09 20° NNE 21:16:14 10° ENE visible
